RH
99 93 76 40 16 10 13 16 31 26 20 23 26 28 27 23 16 12 11 11 10 9 8 6 6 4 2 1 1 1 1 1 2 2 3 4 5 6
99 95 64 24 13 14 18 26 26 22 23 26 29 27 19 14 12 12 11 9 8 7 7 6 3 1 1 1 1 1 1 2 3 4 6 8 8 11
90 62 33 23 17 19 28 23 24 24 26 31 24 16 13 13 12 10 9 9 9 8 5 2 1 1 1 1 1 2 2 4 5 6 9 10 12 20
78 28 28 28 30 28 23 27 27 31 30 20 14 14 13 12 11 11 11 10 8 4 2 1 1 1 1 2 2 3 5 5 7 10 12 12 16 27
40 34 37 36 27 29 28 33 34 25 17 15 16 15 14 14 14 14 11 7 3 2 1 1 1 1 2 3 4 6 6 6 8 13 14 13 17 32
51 49 34 34 37 37 36 30 20 16 18 18 18 18 18 17 14 10 6 3 2 1 1 2 2 3 5 5 6 6 6 6 8 12 13 12 16 35
49 33 34 40 40 27 20 18 20 21 21 21 21 20 19 16 12 9 4 1 1 1 2 4 5 7 7 8 7 7 6 6 7 9 10 12 16 35
34 39 43 32 21 22 20 22 25 29 25 23 23 21 18 15 11 6 3 1 1 2 2 7 7 8 8 8 7 7 8 10 11 11 12 13 15 34
43 39 28 23 24 26 36 59 41 33 28 28 24 21 20 17 12 6 2 2 2 4 3 7 8 9 9 9 8 9 10 10 10 11 12 14 19 32
34 26 31 26 28 36 37 62 51 33 34 28 23 24 21 18 13 5 2 2 5 7 6 7 10 9 9 9 9 11 11 12 13 13 14 18 26 33
32 30 34 55 62 84 52 39 39 39 35 30 29 28 23 19 10 3 4 5 6 11 11 11 11 10 9 8 9 12 14 16 16 15 17 24 34 37
76 78 50 69 66 45 44 43 47 44 40 36 36 30 20 12 5 5 6 8 12 14 14 11 11 10 7 7 8 15 17 21 20 22 28 40 48 45
58 75 77 48 49 49 53 55 54 51 47 42 42 30 12 6 7 9 12 16 18 18 14 10 7 6 8 8 10 16 22 26 30 40 50 54 55 52
73 45 48 54 58 57 54 58 59 57 52 49 47 28 8 8 11 15 19 20 18 11 7 6 6 10 16 19 21 22 30 38 42 56 56 57 57 54
43 49 56 59 53 48 51 58 62 61 59 54 42 15 8 12 18 18 16 11 7 8 11 15 20 26 30 30 28 29 36 42 63 67 64 61 56 54
49 55 53 47 45 46 55 65 66 65 63 58 36 12 13 18 16 8 6 5 6 16 27 32 36 39 37 34 32 31 49 59 75 75 71 69 70 71
49 46 44 43 41 47 68 71 70 68 66 48 19 10 17 14 6 6 6 9 17 20 33 43 44 39 36 38 35 39 44 59 79 75 76 72 76 83
44 43 42 39 38 50 70 77 73 71 63 33 13 17 15 6 7 9 13 18 22 35 42 40 37 34 35 42 46 36 35 35 38 38 41 34 30 47
38 36 34 32 31 32 63 76 78 73 51 19 22 20 7 8 12 16 20 22 30 41 46 42 42 40 37 33 34 47 36 35 32 31 33 30 25 26
29 27 27 27 24 28 73 80 79 75 31 25 26 12 9 13 16 22 23 24 35 41 45 41 44 45 44 38 31 36 47 42 42 37 34 32 35 32
22 22 21 19 20 35 81 84 83 60 26 29 23 11 13 16 18 25 27 29 38 44 50 46 51 50 45 40 40 40 42 51 50 43 38 36 35 34
20 21 17 23 33 47 86 86 83 36 35 37 18 15 17 18 20 28 30 29 40 47 53 46 49 50 50 43 39 36 33 37 47 48 56 64 64 60
60 29 27 80 50 84 91 93 66 50 48 37 15 16 19 20 25 35 30 33 47 52 56 48 47 52 49 42 35 29 31 35 39 37 44 77 85 97
Wind_Speed
33 33 27 23 28 29 25 22 18 16 17 14 16 16 18 19 20 22 25 28 26 29 32 34 35 37 39 40 43 45 46 47 48 46 45 43 43 43
38 31 28 25 29 26 20 19 18 15 15 15 15 16 18 19 21 23 25 26 28 31 33 35 37 38 41 43 44 45 45 44 44 42 40 40 39 41
25 24 27 25 27 22 19 16 14 15 15 15 15 16 17 20 22 24 24 27 32 33 35 36 38 40 42 44 45 44 43 42 41 40 38 37 39 40
22 22 24 25 20 18 16 16 15 13 12 14 14 17 17 19 22 24 27 30 33 35 36 37 40 42 43 43 43 42 41 40 40 37 35 36 38 39
22 22 23 20 19 17 14 13 12 12 11 11 14 15 16 18 22 25 28 31 33 35 37 39 41 43 42 41 41 39 39 40 39 37 35 36 38 37
23 22 22 18 16 14 15 12 10 10 8 10 13 15 18 20 24 26 29 30 32 35 37 38 41 39 39 39 39 38 39 39 38 37 37 36 37 36
22 23 22 18 17 15 13 11 9 7 8 12 14 18 21 23 26 27 28 29 32 36 36 36 36 35 35 37 38 38 38 38 38 39 39 37 36 36
24 20 17 16 14 13 10 7 5 8 12 14 17 20 23 26 29 31 32 32 32 37 34 26 34 32 33 35 36 36 37 38 39 39 40 38 36 35
19 17 17 16 14 11 4 5 8 10 14 16 18 22 26 28 31 34 35 35 36 35 38 30 31 30 31 34 35 35 36 38 39 40 41 41 37 35
20 18 16 13 9 7 6 9 11 12 14 18 21 26 29 32 35 37 36 36 33 34 39 39 36 34 33 35 35 36 37 39 41 42 43 41 37 34
18 16 11 6 5 10 10 8 10 14 17 20 24 29 33 37 39 39 37 36 34 30 35 38 39 41 41 39 39 38 39 40 41 42 43 41 36 35
14 12 9 11 10 6 7 10 13 16 19 23 28 33 35 38 38 37 36 35 36 37 41 44 45 48 47 43 41 39 40 37 38 38 38 37 35 35
12 12 11 9 6 7 9 12 15 19 22 26 30 34 36 37 37 36 36 36 38 42 45 50 50 50 49 49 45 41 39 34 31 29 32 32 31 32
12 12 9 6 6 9 12 15 18 21 24 28 33 36 37 36 36 35 36 38 41 45 47 48 50 49 47 46 44 38 37 31 29 27 28 27 27 28
11 9 7 7 9 12 16 20 23 25 27 31 35 37 37 34 33 35 39 42 41 41 42 43 45 45 45 44 42 39 38 30 26 28 26 26 26 25
8 6 7 11 13 16 20 24 26 28 31 34 37 38 35 32 35 39 40 40 37 33 35 41 43 43 41 40 40 38 35 34 28 27 28 26 25 26
8 9 12 14 16 19 24 27 29 31 33 36 39 38 35 36 37 38 37 35 34 36 36 37 39 39 40 39 39 36 36 32 31 31 31 30 27 27
11 13 15 17 20 23 28 30 31 33 36 39 39 36 35 36 36 35 33 33 35 37 37 38 38 39 38 34 32 32 30 30 29 28 30 33 29 27
14 16 18 21 23 27 32 33 33 33 37 37 36 35 37 36 35 34 33 35 36 37 36 37 38 39 39 38 30 26 35 29 31 28 31 32 32 28
17 19 22 25 28 30 35 34 33 35 37 37 35 36 36 35 35 35 35 36 37 37 35 36 37 38 38 39 36 24 27 35 36 37 36 36 35 33
21 24 26 28 30 34 37 35 34 37 37 35 35 36 36 36 36 37 36 37 38 38 36 36 35 36 36 38 38 35 28 29 35 40 41 41 42 41
24 27 29 30 34 38 38 36 36 38 36 35 34 35 36 36 37 37 36 37 37 37 36 36 35 35 34 36 38 38 35 32 29 33 32 35 40 43
28 30 30 35 37 39 38 36 37 36 36 36 35 35 36 36 37 36 36 37 37 36 36 36 36 36 35 36 38 39 36 35 36 36 26 27 31 33
Wind_Direction
223 223 226 224 243 236 226 228 231 238 236 242 256 263 268 274 283 291 297 297 304 302 302 303 305 305 306 307 307 309 312 312 311 309 308 309 310 310
218 225 224 215 228 229 227 230 230 233 243 251 259 266 273 286 293 296 293 303 307 301 301 303 304 305 306 307 308 310 311 310 309 310 310 311 311 309
205 223 225 213 216 221 220 221 230 240 246 254 262 276 290 293 298 297 306 307 299 303 303 305 304 305 306 309 311 311 310 310 309 309 310 312 311 307
207 214 215 208 206 206 210 219 229 242 253 262 286 285 292 299 298 306 307 304 304 303 305 304 306 307 309 310 310 310 310 308 307 308 312 313 313 312
200 205 208 194 195 204 210 223 232 241 257 272 280 290 297 300 305 306 303 302 306 307 307 308 308 309 310 311 309 311 310 306 306 306 308 313 314 312
192 192 194 190 195 202 213 213 230 245 264 280 288 296 302 310 306 307 307 311 309 308 308 309 310 312 312 312 312 310 306 304 303 303 305 310 312 312
189 190 190 192 195 196 205 207 223 253 277 283 296 307 308 308 314 313 313 312 310 310 314 312 311 309 312 311 311 309 307 305 303 302 304 307 308 309
183 188 186 186 187 196 198 207 235 284 282 294 302 303 313 320 321 320 318 315 313 310 311 312 311 315 314 309 310 308 305 304 303 302 302 302 303 301
177 177 181 188 190 186 201 257 266 291 292 295 309 318 321 325 327 324 322 320 318 316 314 319 316 317 313 311 311 309 307 304 302 302 301 299 295 296
177 171 182 183 182 192 229 264 269 279 299 314 319 324 329 330 329 325 322 321 321 321 318 320 319 319 317 314 315 314 309 305 302 300 296 293 292 292
169 175 165 166 207 240 243 264 294 311 314 317 325 331 331 331 330 326 322 319 321 322 315 316 318 316 316 318 317 317 313 306 300 295 292 292 292 292
167 169 173 209 229 246 286 304 311 311 316 325 332 333 332 330 326 323 322 323 324 325 320 317 320 319 317 317 318 316 310 304 296 291 289 289 290 289
160 188 213 221 247 278 300 310 313 317 324 328 330 332 329 328 327 326 326 326 325 323 322 320 321 320 320 318 317 315 310 305 297 289 284 286 289 290
189 202 213 238 281 297 307 313 316 319 321 326 330 331 332 332 328 325 323 323 325 323 321 320 320 321 321 320 319 317 312 311 305 295 290 290 290 291
200 214 236 266 288 300 308 317 320 320 322 325 331 334 331 327 325 323 323 324 324 322 321 321 322 322 322 320 319 319 316 316 309 304 301 299 297 298
215 245 275 287 294 308 318 322 320 318 323 329 331 330 328 326 325 323 321 321 320 321 323 321 320 319 319 319 320 318 319 318 314 310 304 303 304 306
244 266 278 290 303 313 323 323 322 324 324 327 330 328 326 325 323 320 318 320 323 324 325 321 319 319 319 322 320 319 317 314 311 309 304 303 303 302
265 275 288 300 308 316 325 324 321 324 328 327 325 323 322 321 321 321 321 323 325 325 324 322 322 322 320 318 318 317 309 312 312 311 309 308 310 306
276 288 297 305 311 314 321 324 323 321 323 323 323 321 322 323 324 324 323 323 323 323 324 324 324 321 320 320 328 326 315 321 316 317 317 317 318 315
290 297 302 307 311 315 320 319 318 321 322 321 320 320 321 323 324 323 321 320 320 322 323 322 323 323 323 322 324 332 323 320 319 317 318 317 317 315
293 298 301 306 309 315 319 316 316 319 318 317 319 322 323 323 322 320 317 319 322 322 322 320 322 322 323 322 322 325 329 320 316 315 318 317 317 315
295 299 301 306 308 314 314 312 314 317 317 319 321 320 320 319 318 316 317 320 320 319 318 318 321 321 321 320 321 323 324 320 311 307 312 311 309 310
289 294 300 302 304 308 308 309 314 315 316 319 319 317 316 316 316 316 317 317 317 318 317 318 319 320 323 319 318 318 321 317 316 314 317 307 305 305